K5RWS Weather Reports


Display with metric or nautical units.
time (UTC)temp
F
wind
direction
speed
MPH
gust
MPH
rain 1hr
in
rain 24hr
in
rain mn
in
humidity
%
barometer
mb
20260505124852 56 201 0.0 0.0 0.00 0.00 0.00 38 1014.2
20260505124349 56 201 0.0 0.0 0.00 0.00 0.00 38 1014.5
20260505123845 56 201 0.0 0.0 0.00 0.00 0.00 38 1014.6
20260505123342 56 204 0.0 1.0 0.00 0.00 0.00 38 1014.6
20260505122837 56 267 1.0 2.0 0.00 0.00 0.00 37 1014.6
20260505122335 56 246 1.0 2.0 0.00 0.00 0.00 37 1014.3
20260505121832 56 301 2.0 2.0 0.00 0.00 0.00 37 1014.2
20260505121329 57 281 2.0 2.0 0.00 0.00 0.00 36 1014.2
20260505120825 57 280 2.0 4.0 0.00 0.00 0.00 36 1014.2
20260505120321 57 267 2.0 6.0 0.00 0.00 0.00 35 1014.1
20260505115819 57 266 2.0 4.0 0.00 0.00 0.00 36 1014.0
20260505115317 57 263 2.0 4.0 0.00 0.00 0.00 35 1014.1
20260505114815 57 294 2.0 3.0 0.00 0.00 0.00 35 1014.3
20260505114311 57 288 1.0 3.0 0.00 0.00 0.00 35 1014.2
20260505113808 57 270 0.0 2.0 0.00 0.00 0.00 35 1014.0
20260505113304 57 290 1.0 3.0 0.00 0.00 0.00 35 1014.0
20260505112800 57 284 1.0 1.0 0.00 0.00 0.00 35 1014.0
20260505112258 57 271 0.0 1.0 0.00 0.00 0.00 35 1014.0
20260505111758 58 244 0.0 4.0 0.00 0.00 0.00 35 1013.9
20260505111254 57 291 3.0 7.0 0.00 0.00 0.00 35 1014.0
20260505110750 57 258 3.0 4.0 0.00 0.00 0.00 35 1013.9
20260505110248 58 253 3.0 6.0 0.00 0.00 0.00 34 1014.2
20260505101722 58 253 3.0 6.0 0.00 0.00 0.00 33 1014.1
20260505101218 58 248 2.0 4.0 0.00 0.00 0.00 33 1014.2
20260505100714 58 222 1.0 2.0 0.00 0.00 0.00 34 1014.1
20260505100211 58 204 0.0 1.0 0.00 0.00 0.00 34 1014.0
20260505095707 59 239 2.0 2.0 0.00 0.00 0.00 33 1014.1
20260505095205 59 242 2.0 4.0 0.00 0.00 0.00 33 1013.9
20260505094700 59 283 8.0 10.0 0.00 0.00 0.00 33 1014.0
20260505094157 58 242 5.0 6.0 0.00 0.00 0.00 33 1014.1
20260505093653 57 265 2.0 3.0 0.00 0.00 0.00 35 1013.9
20260505093151 58 221 2.0 3.0 0.00 0.00 0.00 35 1013.9
20260505092647 58 201 1.0 2.0 0.00 0.00 0.00 35 1014.0
20260505092146 58 192 1.0 1.0 0.00 0.00 0.00 35 1014.2
20260505091643 58 196 0.0 0.0 0.00 0.00 0.00 34 1014.2
20260505091141 59 214 0.0 0.0 0.00 0.00 0.00 33 1014.2
20260505090638 59 289 0.0 1.0 0.00 0.00 0.00 33 1014.1
20260505090137 59 291 1.0 2.0 0.00 0.00 0.00 33 1014.2
20260505085633 59 271 1.0 3.0 0.00 0.00 0.00 33 1014.2
20260505085132 60 281 4.0 4.0 0.00 0.00 0.00 32 1014.0
20260505084629 60 241 5.0 6.0 0.00 0.00 0.00 32 1014.2
20260505084128 60 277 5.0 6.0 0.00 0.00 0.00 32 1014.6
20260505083625 60 255 5.0 7.0 0.00 0.00 0.00 31 1014.7
20260505083121 60 296 3.0 6.0 0.00 0.00 0.00 32 1014.6
20260505082616 60 294 4.0 4.0 0.00 0.00 0.00 32 1014.7
20260505082114 61 286 6.0 8.0 0.00 0.00 0.00 31 1014.9
20260505081610 61 290 4.0 8.0 0.00 0.00 0.00 31 1014.7
20260505081108 60 261 4.0 8.0 0.00 0.00 0.00 31 1014.9
20260505080603 61 286 6.0 7.0 0.00 0.00 0.00 31 1014.8
20260505080100 61 271 3.0 9.0 0.00 0.00 0.00 31 1014.8
20260505075556 61 286 6.0 7.0 0.00 0.00 0.00 31 1015.0
20260505075053 62 283 7.0 10.0 0.00 0.00 0.00 30 1015.0
20260505074550 62 297 6.0 14.0 0.00 0.00 0.00 30 1014.8
20260505074047 62 239 7.0 10.0 0.00 0.00 0.00 30 1014.9
20260505073544 62 262 6.0 13.0 0.00 0.00 0.00 29 1014.6
20260505073043 62 282 13.0 15.0 0.00 0.00 0.00 29 1014.5
20260505072538 62 229 10.0 13.0 0.00 0.00 0.00 29 1014.5
20260505072035 63 257 8.0 13.0 0.00 0.00 0.00 29 1014.6
20260505071530 63 247 6.0 10.0 0.00 0.00 0.00 29 1014.5
20260505071029 63 262 9.0 16.0 0.00 0.00 0.00 28 1014.7
20260505070526 63 261 13.0 16.0 0.00 0.00 0.00 28 1014.7
20260505070022 62 270 10.0 13.0 0.00 0.00 0.00 28 1014.6
20260505065518 62 271 6.0 9.0 0.00 0.00 0.00 27 1014.3
20260505065015 63 264 7.0 9.0 0.00 0.00 0.00 27 1014.2
20260505064512 63 254 6.0 9.0 0.00 0.00 0.00 27 1014.1
20260505064010 63 276 6.0 8.0 0.00 0.00 0.00 27 1014.1
20260505063507 64 235 7.0 10.0 0.00 0.00 0.00 27 1014.2
20260505063008 64 277 5.0 9.0 0.00 0.00 0.00 26 1014.1
20260505062505 64 255 6.0 10.0 0.00 0.00 0.00 26 1014.1
20260505062002 64 247 5.0 10.0 0.00 0.00 0.00 26 1014.2
20260505061500 64 248 7.0 13.0 0.00 0.00 0.00 26 1013.9
20260505060957 64 286 9.0 11.0 0.00 0.00 0.00 25 1014.0
20260505060454 64 254 6.0 11.0 0.00 0.00 0.00 25 1013.9
20260505055950 64 257 6.0 11.0 0.00 0.00 0.00 24 1014.0
20260505055446 64 266 6.0 9.0 0.00 0.00 0.00 24 1013.9
20260505054943 65 262 9.0 11.0 0.00 0.00 0.00 24 1014.0
20260505054441 65 273 7.0 9.0 0.00 0.00 0.00 24 1014.1
20260505053939 65 252 7.0 9.0 0.00 0.00 0.00 23 1014.1
20260505053436 65 245 6.0 10.0 0.00 0.00 0.00 23 1014.1
20260505052932 66 266 7.0 10.0 0.00 0.00 0.00 23 1014.0
20260505052429 66 260 6.0 13.0 0.00 0.00 0.00 23 1013.9
20260505051926 66 248 10.0 14.0 0.00 0.00 0.00 22 1013.9
20260505051423 66 264 7.0 9.0 0.00 0.00 0.00 23 1014.0
20260505050922 66 231 5.0 10.0 0.00 0.00 0.00 23 1014.1
20260505050420 66 242 6.0 13.0 0.00 0.00 0.00 22 1013.9
20260505041347 66 257 3.0 4.0 0.00 0.00 0.00 24 1013.8
20260505040844 66 251 3.0 3.0 0.00 0.00 0.00 24 1013.8
20260505040342 67 247 1.0 4.0 0.00 0.00 0.00 24 1013.4
20260505035838 67 220 1.0 4.0 0.00 0.00 0.00 24 1013.6
20260505035334 67 232 3.0 4.0 0.00 0.00 0.00 24 1013.4
20260505034832 68 221 4.0 6.0 0.00 0.00 0.00 24 1013.6
20260505034328 68 266 4.0 7.0 0.00 0.00 0.00 23 1013.5
20260505033825 68 255 8.0 9.0 0.00 0.00 0.00 23 1013.2
20260505033322 68 271 7.0 11.0 0.00 0.00 0.00 23 1013.3
20260505032820 68 273 4.0 9.0 0.00 0.00 0.00 23 1013.2
20260505032316 68 284 6.0 8.0 0.00 0.00 0.00 23 1013.2
20260505031814 69 262 5.0 8.0 0.00 0.00 0.00 22 1013.1
20260505031310 69 261 7.0 11.0 0.00 0.00 0.00 22 1013.1
20260505030807 69 281 6.0 10.0 0.00 0.00 0.00 22 1012.7
20260505030303 69 277 10.0 11.0 0.00 0.00 0.00 22 1012.8
20260505025758 69 291 11.0 13.0 0.00 0.00 0.00 22 1013.1
20260505025256 69 241 10.0 15.0 0.00 0.00 0.00 21 1012.8
20260505024755 69 262 11.0 16.0 0.00 0.00 0.00 21 1012.9
20260505024252 70 273 12.0 16.0 0.00 0.00 0.00 21 1012.7
20260505023749 70 264 13.0 22.0 0.00 0.00 0.00 21 1012.6
20260505023246 70 246 12.0 18.0 0.00 0.00 0.00 21 1012.7
20260505022743 70 276 13.0 19.0 0.00 0.00 0.00 21 1012.7
20260505022240 70 263 12.0 15.0 0.00 0.00 0.00 20 1012.8
20260505021737 70 281 9.0 15.0 0.00 0.00 0.00 20 1012.6
20260505021234 71 256 8.0 14.0 0.00 0.00 0.00 20 1012.7
20260505020730 71 283 13.0 17.0 0.00 0.00 0.00 20 1012.6
20260505020225 71 254 9.0 14.0 0.00 0.00 0.00 20 1012.6
20260505015723 71 298 15.0 17.0 0.00 0.00 0.00 20 1012.2
20260505015220 71 268 9.0 11.0 0.00 0.00 0.00 21 1012.0
20260505014716 71 284 8.0 10.0 0.00 0.00 0.00 21 1012.1
20260505014214 71 271 9.0 13.0 0.00 0.00 0.00 20 1012.1
20260505013710 71 272 9.0 11.0 0.00 0.00 0.00 20 1012.2
20260505013208 71 296 10.0 11.0 0.00 0.00 0.00 20 1012.2
20260505012706 72 263 10.0 13.0 0.00 0.00 0.00 20 1012.1
20260505012203 72 242 8.0 13.0 0.00 0.00 0.00 20 1011.8
20260505011658 72 278 9.0 18.0 0.00 0.00 0.00 19 1011.8
20260505011156 72 265 11.0 19.0 0.00 0.00 0.00 19 1011.8
20260505010651 73 243 9.0 13.0 0.00 0.00 0.00 18 1011.9
20260505010148 73 305 9.0 15.0 0.00 0.00 0.00 18 1011.9
20260505005644 73 279 10.0 15.0 0.00 0.00 0.00 17 1012.0
20260505005141 73 245 4.0 8.0 0.00 0.00 0.00 17 1012.0
20260505004638 74 270 7.0 11.0 0.00 0.00 0.00 16 1012.0
20260505004135 74 256 4.0 9.0 0.00 0.00 0.00 16 1012.0
20260505003632 74 287 9.0 11.0 0.00 0.00 0.00 15 1012.0
20260505003130 74 280 9.0 13.0 0.00 0.00 0.00 16 1012.2
20260505002626 74 237 7.0 16.0 0.00 0.00 0.00 15 1012.1
20260505002124 74 251 8.0 10.0 0.00 0.00 0.00 15 1012.0
20260505001621 75 195 6.0 13.0 0.00 0.00 0.00 15 1012.0
20260505001118 75 223 11.0 15.0 0.00 0.00 0.00 15 1012.1
20260505000616 75 250 7.0 14.0 0.00 0.00 0.00 15 1012.1
20260505000113 75 252 11.0 13.0 0.00 0.00 0.00 13 1011.9
20260504235609 75 236 8.0 13.0 0.00 0.00 0.00 14 1012.0
20260504235106 75 206 9.0 16.0 0.00 0.00 0.00 14 1011.9
20260504234603 75 230 9.0 14.0 0.00 0.00 0.00 14 1012.0
20260504234101 75 236 6.0 11.0 0.00 0.00 0.00 13 1012.2
20260504233601 75 250 10.0 15.0 0.00 0.00 0.00 13 1012.2
20260504233058 75 260 8.0 11.0 0.00 0.00 0.00 13 1012.2
20260504232555 75 239 9.0 15.0 0.00 0.00 0.00 13 1012.3
20260504232053 75 226 9.0 14.0 0.00 0.00 0.00 13 1012.2
20260504231549 74 244 6.0 11.0 0.00 0.00 0.00 13 1012.3
20260504231045 75 242 8.0 14.0 0.00 0.00 0.00 13 1012.0
20260504230541 75 231 7.0 16.0 0.00 0.00 0.00 13 1012.3
20260504230041 75 207 9.0 15.0 0.00 0.00 0.00 13 1012.2
20260504225537 75 237 14.0 18.0 0.00 0.00 0.00 13 1012.0
20260504225034 75 246 6.0 15.0 0.00 0.00 0.00 13 1012.2
20260504224531 75 225 11.0 18.0 0.00 0.00 0.00 12 1012.3
20260504224028 75 249 8.0 16.0 0.00 0.00 0.00 13 1012.1
20260504223525 76 207 9.0 14.0 0.00 0.00 0.00 12 1012.3
20260504223020 76 255 12.0 17.0 0.00 0.00 0.00 12 1012.2
20260504222517 76 220 12.0 15.0 0.00 0.00 0.00 12 1012.5
20260504222015 76 237 9.0 13.0 0.00 0.00 0.00 13 1012.3
20260504221512 75 267 9.0 18.0 0.00 0.00 0.00 13 1012.3
20260504221009 76 240 9.0 21.0 0.00 0.00 0.00 13 1012.6
20260504220505 75 229 8.0 17.0 0.00 0.00 0.00 14 1012.3
20260504220002 75 206 11.0 18.0 0.00 0.00 0.00 14 1012.8
20260504215459 76 221 9.0 17.0 0.00 0.00 0.00 13 1012.8
20260504214956 76 217 5.0 10.0 0.00 0.00 0.00 14 1012.9
20260504214452 76 204 3.0 10.0 0.00 0.00 0.00 14 1012.8
20260504213949 76 228 10.0 14.0 0.00 0.00 0.00 14 1012.9
20260504213444 76 231 6.0 10.0 0.00 0.00 0.00 15 1013.1
20260504212942 75 233 5.0 13.0 0.00 0.00 0.00 15 1013.1
20260504212438 76 243 11.0 14.0 0.00 0.00 0.00 15 1013.2
20260504211936 75 250 7.0 9.0 0.00 0.00 0.00 15 1013.2
20260504211432 76 255 3.0 7.0 0.00 0.00 0.00 16 1013.1
20260504210930 76 239 6.0 9.0 0.00 0.00 0.00 16 1013.3
20260504210426 76 280 4.0 6.0 0.00 0.00 0.00 16 1013.5
20260504205923 75 203 6.0 9.0 0.00 0.00 0.00 16 1013.6
20260504205421 75 216 5.0 14.0 0.00 0.00 0.00 17 1013.9
20260504204919 75 206 10.0 18.0 0.00 0.00 0.00 16 1014.2
20260504204417 75 251 8.0 16.0 0.00 0.00 0.00 17 1014.3
20260504203916 75 239 10.0 15.0 0.00 0.00 0.00 17 1014.2
20260504203413 74 234 9.0 11.0 0.00 0.00 0.00 17 1014.5
20260504202909 73 219 6.0 9.0 0.00 0.00 0.00 18 1014.6
20260504202406 74 269 11.0 16.0 0.00 0.00 0.00 17 1014.8
20260504201902 74 260 7.0 10.0 0.00 0.00 0.00 17 1014.7
20260504201400 75 241 13.0 19.0 0.00 0.00 0.00 16 1014.8
20260504200857 75 202 7.0 11.0 0.00 0.00 0.00 18 1014.9
20260504200354 74 205 7.0 15.0 0.00 0.00 0.00 17 1014.7
20260504195850 74 250 5.0 6.0 0.00 0.00 0.00 17 1014.9
20260504195346 74 343 2.0 3.0 0.00 0.00 0.00 17 1014.9
20260504194843 73 243 8.0 14.0 0.00 0.00 0.00 18 1015.2
20260504194339 74 257 6.0 11.0 0.00 0.00 0.00 18 1015.4
20260504193835 74 190 3.0 4.0 0.00 0.00 0.00 18 1015.2
20260504193332 74 159 5.0 9.0 0.00 0.00 0.00 20 1015.4
20260504192831 72 153 4.0 7.0 0.00 0.00 0.00 18 1015.5
20260504192329 72 237 7.0 16.0 0.00 0.00 0.00 18 1015.5
20260504191827 73 230 6.0 13.0 0.00 0.00 0.00 18 1015.7
20260504191324 73 224 4.0 6.0 0.00 0.00 0.00 19 1015.7
20260504190819 72 170 2.0 3.0 0.00 0.00 0.00 20 1015.6
20260504190316 71 249 6.0 13.0 0.00 0.00 0.00 19 1016.0
20260504185812 72 174 5.0 11.0 0.00 0.00 0.00 20 1015.9
20260504185309 73 157 6.0 9.0 0.00 0.00 0.00 20 1016.0
20260504184805 72 235 4.0 11.0 0.00 0.00 0.00 21 1016.1
20260504184301 71 231 5.0 9.0 0.00 0.00 0.00 20 1016.2
20260504183757 70 217 4.0 8.0 0.00 0.00 0.00 20 1016.4
20260504183254 71 268 6.0 14.0 0.00 0.00 0.00 20 1016.3
20260504182752 70 185 5.0 7.0 0.00 0.00 0.00 21 1016.4
20260504182249 70 218 6.0 13.0 0.00 0.00 0.00 20 1016.6
20260504181747 71 256 11.0 15.0 0.00 0.00 0.00 20 1016.4
20260504181244 71 232 8.0 10.0 0.00 0.00 0.00 19 1016.3
20260504180743 70 230 8.0 15.0 0.00 0.00 0.00 20 1016.6
20260504180241 70 247 5.0 8.0 0.00 0.00 0.00 19 1016.4
20260504175739 70 217 6.0 8.0 0.00 0.00 0.00 19 1016.8
20260504175235 69 185 7.0 11.0 0.00 0.00 0.00 19 1016.9
20260504174733 69 243 6.0 9.0 0.00 0.00 0.00 22 1016.7
20260504174231 70 217 3.0 11.0 0.00 0.00 0.00 22 1016.8
20260504173727 69 282 6.0 8.0 0.00 0.00 0.00 21 1016.9
20260504173224 69 212 9.0 13.0 0.00 0.00 0.00 21 1017.0
20260504172721 69 236 11.0 14.0 0.00 0.00 0.00 20 1016.9
20260504172217 69 262 6.0 8.0 0.00 0.00 0.00 20 1017.0
20260504171714 69 227 6.0 13.0 0.00 0.00 0.00 21 1017.2
20260504171211 69 224 6.0 8.0 0.00 0.00 0.00 20 1017.4
20260504170707 69 269 9.0 10.0 0.00 0.00 0.00 19 1016.8
20260504170205 68 279 9.0 10.0 0.00 0.00 0.00 20 1017.0
20260504160124 66 256 6.0 10.0 0.00 0.00 0.00 24 1017.3
20260504151051 62 174 2.0 7.0 0.00 0.00 0.00 47 1017.6
20260504150548 62 192 4.0 6.0 0.00 0.00 0.00 46 1017.7
20260504141014 58 168 1.0 2.0 0.00 0.00 0.00 60 1017.9
20260504140510 58 169 1.0 2.0 0.00 0.00 0.00 61 1018.0
20260504130435 56 177 1.0 7.0 0.00 0.00 0.00 64 1017.7